Regional Weather Roundup
Issued by NWS

Home | Current Version | Previous Version | Text Only | Print | Product List | Glossary On
Versions: 1 2 3 4 5 6 7 8 9 10 11 12 13 14 15 16 17 18 19 20 21 22 23 24 25 26 27 28 29 30 31 32 33 34 35 36 37 38 39 40 41 42 43 44 45 46 47 48 49 50
000
ASUS43 KTOP 281308
RWRKS

WEATHER ROUNDUP FOR KANSAS
NATIONAL WEATHER SERVICE GOODLAND KS
700 AM CST TUE FEB 28 2017

NOTE:  "FAIR" INDICATES FEW OR NO CLOUDS BELOW 12,000 FEET WITH NO
SIGNIFICANT WEATHER AND/OR OBSTRUCTIONS TO VISIBILITY.

KSZ001>006-013>018-027>032-041>047-281400-
NORTHWEST KANSAS

CITY           SKY/WX    TMP DP  RH WIND       PRES   REMARKS
GOODLAND       CLEAR     25  20  81 NW13      29.68S WCI  14
HAYS             N/A     32  22  66 CALM      29.69R
HILL CITY      CLEAR     32  25  75 NW8       29.69R
RUSSELL        PTCLDY    32  21  64 SW5       29.67R
$$

KSZ061>065-074>080-084>089-281400-
SOUTHWEST KANSAS

CITY           SKY/WX    TMP DP  RH WIND       PRES   REMARKS
DODGE CITY     CLOUDY    37  16  42 NW9       29.70R
ELKHART          N/A     45  23  42 SW8         N/A
GARDEN CITY    CLOUDY    31  19  61 NW7       29.71R
GREAT BEND     CLOUDY    39  20  46 W7        29.70
LIBERAL        CLOUDY    43  16  33 W8        29.70R
PRATT          CLOUDY    39  26  59 W5        29.69R
$$

KSZ066>073-081>083-090>101-281400-
SOUTHEAST KANSAS

CITY           SKY/WX    TMP DP  RH WIND       PRES   REMARKS
CHANUTE        CLOUDY    63  59  87 S21       29.73S
COFFEYVILLE    CLOUDY    63  60  90 S16       29.75S
HUTCHINSON     CLOUDY    45  42  89 NW7       29.67R
MEDICINE LODGE   N/A     46  33  60 S8        29.68S
NEWTON         PTCLDY    55  53  93 SW15      29.66S
PARSONS        CLOUDY    63  59  87 S13G23    29.75S
WICHITA INTL   CLOUDY    53  53 100 S10       29.68S FOG
WICHITA JABRA  CLOUDY    56  55  97 S16       29.66F
WICHITA MCCONL CLOUDY    55  54  97 SW13      29.68S FOG
WINFIELD       PTCLDY    59  56  89 S12       29.72S
$$

KSZ007>012-019>026-033>040-048>060-102>105-281400-
NORTHEAST KANSAS

CITY           SKY/WX    TMP DP  RH WIND       PRES   REMARKS
CONCORDIA      CLOUDY    43  30  60 W9        29.65R
EMPORIA        MOCLDY    61  58  90 S20       29.66F
LAWRENCE       PTCLDY    62  59  90 S16       29.67R
MANHATTAN      PTCLDY    54  52  93 SW5       29.65R
MARYSVILLE     CLOUDY    50  46  87 SW8       29.64R
OLATHE IND     CLOUDY    62  58  86 S16       29.70S
OLATHE EXE     CLOUDY    61  59  93 S14       29.70S
SALINA         MOCLDY    48  46  93 S8        29.66S FOG
TOPEKA BILLARD MOCLDY    62  60  93 S12       29.66S
TOPEKA FORBES  PTCLDY    62  58  86 S10       29.67S
$$




USA.gov is the U.S. government's official web portal to all federal, state and local government web resources and services.